Tracking 17630 objects as of 6-May-2016
HD Live streaming from Space Station
objects crossing your sky now

SL-16 DEB

Track SL-16 DEB now!
10-day predictions


NORAD ID: 22453
Int'l Code: 1992-093ES
Perigee: 825.1 km
Apogee: 1,081.3 km
Inclination: 70.8 °
Period: 104.0 minutes
Semi major axis: 7324 km
RCS: 0.0192 m2 (small)
Launch date: December 25, 1992
Source: Commonwealth of Independent States (former USSR) (CIS)
Launch site: TYURATAM MISSILE AND SPACE COMPLEX (TTMTR)

Note: This is SATELLITE DEBRIS
Your satellite tracking list
Your tracking list is empty





NASA's NSSDC Master Catalog

Two Line Element Set (TLE):
1 22453U 92093ES  16126.63077102  .00000230  00000-0  21676-3 0  9991
2 22453  70.8064  49.1405 0174881 284.9581 142.8374 13.85033986175370
Source of the keplerian elements: AFSPC

N2YO: 980